Alexandria, LA

11:02 AM CDT on July 24, 2017 (GMT -0500)
Alexandria International

Weather History for KAEX - January, 1999

Change the Weather History Date:

Tuesday, January 26, 1999

  Actual Average Record
Temperature  
Mean Temperature 58 °F 49 °F  
Max Temperature 73 °F 60 °F 78 °F (1950)
Min Temperature 42 °F 38 °F 10 °F (1940)
Degree Days  
Heating Degree Days 8 16  
Month to date heating degree days 416  
Since 1 July heating degree days 1205  
Growing Degree Days 8 (Base 50)    
Moisture  
Dew Point 50 °F    
Average Humidity 84    
Maximum Humidity 100    
Minimum Humidity 36    
Precipitation  
Precipitation 0.00 in 0.18 in 2.30 in (1932)
Month to date precipitation 4.19  
Year to date precipitation 4.19  
Snow  
Snow 0.00 in - 1.00 in (1897)
Month to date snowfall  
Since 1 July snowfall  
Snow Depth -    
Sea Level Pressure  
Sea Level Pressure 30.25 in    
Wind  
Wind Speed 5 mph (SE)    
Max Wind Speed 14 mph    
Max Gust Speed -    
Visibility 6 miles    
Events Fog    
T = Trace of Precipitation, MM = Missing Value Source: NWS Daily Summary

Daily Weather History Graph

Daily Weather History Graph

Search for Another Location

Airport or City:

Trip Planner

Search our weather history database for the weather conditions in past years. The results will help you decide how hot, cold, wet, or windy it might be!

Date:

Astronomy

Jan. 26, 1999 Rise Set
Actual Time 7:06 AM CST 5:39 PM CST
Civil Twilight 6:40 AM CST 6:05 PM CST
Nautical Twilight 6:11 AM CST 6:34 PM CST
Astronomical Twilight 5:42 AM CST 7:03 PM CST
Moon 1:16 PM CST (1/26) 2:04 AM CST (1/26)
Length of Visible Light 11h 24m
Length of Day
10h 33m
Waxing Gibbous, 72% of the Moon is Illuminated
Jan 26
Waxing Gibbous
Jan 31
Full
Feb 8
Last Quarter
Feb 16
New
Feb 22
First Quarter

Hourly Weather History & Observations

Time (CST) Temp. Dew Point Humidity Pressure Visibility Wind Dir Wind Speed Gust Speed Precip Events Conditions
1:55 AM 48.2 °F 46.4 °F 93% 30.31 in 10.0 mi SE 4.6 mph - N/A   Clear
2:50 AM 46.4 °F 44.6 °F 93% 30.30 in 10.0 mi Calm Calm - N/A   Clear
3:50 AM 46.4 °F 46.4 °F 100% 30.29 in 10.0 mi Calm Calm - N/A   Clear
4:50 AM 44.6 °F 44.6 °F 100% 30.29 in 0.8 mi Calm Calm - N/A   Clear
5:15 AM 44.6 °F 42.8 °F 93% 30.30 in 0.2 mi Calm Calm - N/A Fog Fog
5:50 AM 42.8 °F 42.8 °F 100% 30.30 in 0.2 mi Calm Calm - N/A Fog Fog
6:50 AM 42.8 °F 42.8 °F 100% 30.31 in 0.1 mi Calm Calm - N/A Fog Fog
7:55 AM 44.6 °F 44.6 °F 100% 30.32 in 0.1 mi Calm Calm - N/A Fog Fog
8:50 AM 48.2 °F 48.2 °F 100% 30.32 in 0.1 mi North - - N/A Fog Fog
10:10 AM 51.8 °F 51.8 °F 100% 30.32 in 0.2 mi Variable 4.6 mph - N/A Fog Fog
10:40 AM 55.4 °F 55.4 °F 100% 30.30 in 3.0 mi ESE 11.5 mph - N/A   Scattered Clouds
10:50 AM 60.8 °F 51.8 °F 72% 30.29 in 10.0 mi ESE 11.5 mph - N/A   Clear
11:50 AM 64.4 °F 44.6 °F 49% 30.27 in 10.0 mi SE 13.8 mph - N/A   Clear
12:50 PM 69.8 °F 46.4 °F 43% 30.22 in 10.0 mi ESE 13.8 mph - N/A   Clear
1:50 PM 73.4 °F 44.6 °F 36% 30.18 in 10.0 mi SE 13.8 mph - N/A   Clear
4:50 PM 69.8 °F 55.4 °F 60% 30.17 in 10.0 mi SSE 9.2 mph - N/A   Clear
5:50 PM 64.4 °F 57.2 °F 77% 30.18 in 7.0 mi SSE 11.5 mph - N/A   Clear
6:50 PM 60.8 °F 55.4 °F 82% 30.19 in 7.0 mi SSE 9.2 mph - N/A   Clear
7:50 PM 62.6 °F 57.2 °F 82% 30.19 in 7.0 mi SSE 11.5 mph - N/A   Clear
8:50 PM 60.8 °F 55.4 °F 82% 30.21 in 10.0 mi SSE 8.1 mph - N/A   Partly Cloudy
9:50 PM 60.8 °F 55.4 °F 82% 30.21 in 10.0 mi South 11.5 mph - N/A   Mostly Cloudy
10:50 PM 55.4 °F 53.6 °F 94% 30.20 in 10.0 mi SE 5.8 mph - N/A   Clear
11:50 PM 55.4 °F 53.6 °F 94% 30.19 in 10.0 mi SSE 6.9 mph - N/A   Clear